Location: Fort Worth, Tx
(32.7431°N, 97.3695°W)
Time: 09:16:49
(UTC-04:00)

A-11 Canister half - Pass Details

Date: 22 August 2024
Orbit: 1524 x 1684 km, 47.3° (Epoch: 13 September)

Event Time Altitude Azimuth Distance (km) Brightness Sun altitude
Rises 01:40:25 0° 289° (WNW) 4,906 12.0 -44.0°
Reaches altitude 10° 01:44:01 10° 298° (WNW) 3,932 11.5 -44.2°
Maximum altitude 01:53:03 35° 1° (N) 2,487 10.3 -44.7°
Drops below altitude 10° 02:02:06 10° 65° (ENE) 3,936 11.2 -45.1°
Sets 02:05:42 0° 74° (ENE) 4,912 11.7 -45.2°
